GW6235 Weather Reports


time (UTC)temp
C
wind
direction
speed
KPH
gust
KPH
rain 1hr
cm
rain 24hr
cm
rain mn
cm
humidity
%
barometer
mb
20260506134637 20 131 1.6 1.6 0.00 0.00 0.00 89 1018.5
20260506134133 19 218 1.6 1.6 0.00 0.00 0.00 90 1018.2
20260506133631 19 163 3.2 3.2 0.00 0.00 0.00 90 1018.2
20260506133128 18 157 4.8 4.8 0.00 0.00 0.00 90 1018.5
20260506132625 18 163 4.8 4.8 0.00 0.00 0.00 90 1018.1
20260506132122 18 153 1.6 1.6 0.00 0.00 0.00 90 1018.4
20260506131619 18 248 0.0 0.0 0.00 0.00 0.00 91 1018.1
20260506131115 18 242 1.6 3.2 0.00 0.00 0.00 91 1018.0
20260506130613 18 164 1.6 1.6 0.00 0.00 0.00 92 1018.0
20260506130110 18 217 0.0 0.0 0.00 0.00 0.00 92 1018.1
20260506125608 17 190 3.2 4.8 0.00 0.00 0.00 92 1017.9
20260506125106 17 128 1.6 3.2 0.00 0.00 0.00 93 1018.1
20260506124603 17 153 3.2 3.2 0.00 0.00 0.00 93 1018.2
20260506124101 17 190 0.0 0.0 0.00 0.00 0.00 93 1018.0
20260506123558 17 166 0.0 1.6 0.00 0.00 0.00 93 1018.0
20260506123057 17 192 3.2 3.2 0.00 0.00 0.00 93 1018.1
20260506122051 16 190 0.0 0.0 0.00 0.00 0.00 94 1017.8
20260506121548 16 149 1.6 1.6 0.00 0.00 0.00 94 1018.0
20260506121044 16 132 3.2 4.8 0.00 0.00 0.00 94 1017.7
20260506120543 16 209 0.0 1.6 0.00 0.00 0.00 95 1017.7
20260506120039 16 147 1.6 3.2 0.00 0.00 0.00 94 1017.6
20260506115537 16 152 3.2 3.2 0.00 0.00 0.00 94 1017.5
20260506115036 15 207 0.0 0.0 0.00 0.00 0.00 95 1017.3
20260506114533 15 144 1.6 1.6 0.00 0.00 0.00 95 1017.3
20260506114031 15 107 3.2 4.8 0.00 0.00 0.00 95 1017.1
20260506113528 15 167 3.2 3.2 0.00 0.00 0.00 95 1017.1
20260506113026 15 130 1.6 1.6 0.00 0.00 0.00 95 1017.2
20260506112522 15 95 3.2 3.2 0.00 0.00 0.00 95 1017.2
20260506112019 15 128 1.6 3.2 0.00 0.00 0.00 95 1017.2
20260506111518 15 165 1.6 1.6 0.00 0.00 0.00 95 1017.1
20260506111014 15 142 3.2 3.2 0.00 0.00 0.00 95 1017.1
20260506110512 15 160 3.2 3.2 0.00 0.00 0.00 95 1016.7
20260506110009 15 108 4.8 4.8 0.00 0.00 0.00 95 1016.6
20260506105505 15 136 1.6 1.6 0.00 0.00 0.00 96 1016.6
20260506105002 15 126 1.6 3.2 0.00 0.00 0.00 96 1016.4
20260506104500 15 179 1.6 1.6 0.00 0.00 0.00 96 1016.2
20260506103958 15 162 3.2 3.2 0.00 0.00 0.00 96 1016.1
20260506103455 15 202 0.0 0.0 0.00 0.00 0.00 96 1016.2
20260506102952 15 214 0.0 1.6 0.00 0.00 0.00 96 1016.1
20260506102450 15 192 0.0 1.6 0.00 0.00 0.00 96 1016.0
20260506101947 15 177 0.0 1.6 0.00 0.00 0.00 96 1016.1
20260506101443 15 189 0.0 0.0 0.00 0.00 0.00 96 1016.1
20260506100941 15 141 0.0 1.6 0.00 0.00 0.00 96 1016.1
20260506100439 15 213 0.0 0.0 0.00 0.00 0.00 95 1016.4
20260506095937 15 200 0.0 0.0 0.00 0.00 0.00 95 1016.2
20260506095435 15 189 0.0 0.0 0.00 0.00 0.00 95 1016.1
20260506094931 15 188 0.0 0.0 0.00 0.00 0.00 95 1016.3
20260506094430 15 173 0.0 0.0 0.00 0.00 0.00 95 1016.5
20260506093927 15 203 0.0 0.0 0.00 0.00 0.00 95 1016.3
20260506093425 15 179 0.0 0.0 0.00 0.00 0.00 95 1016.4
20260506092922 15 202 0.0 0.0 0.00 0.00 0.00 95 1016.5
20260506092420 15 208 0.0 0.0 0.00 0.00 0.00 95 1016.0
20260506091916 15 189 0.0 0.0 0.00 0.00 0.00 95 1016.2
20260506091414 15 155 0.0 0.0 0.00 0.00 0.00 95 1016.2
20260506090911 15 197 0.0 0.0 0.00 0.00 0.00 95 1016.3
20260506090409 15 197 0.0 0.0 0.00 0.00 0.00 95 1016.4
20260506085905 15 221 0.0 0.0 0.00 0.00 0.00 94 1016.4
20260506085402 15 221 0.0 0.0 0.00 0.00 0.00 94 1016.5
20260506084858 15 210 0.0 0.0 0.00 0.00 0.00 94 1016.6
20260506084355 15 208 0.0 0.0 0.00 0.00 0.00 93 1016.7
20260506083852 15 194 0.0 0.0 0.00 0.00 0.00 93 1016.7
20260506083349 15 203 0.0 0.0 0.00 0.00 0.00 93 1016.7
20260506082846 15 229 0.0 0.0 0.00 0.00 0.00 93 1016.9
20260506082343 15 212 0.0 0.0 0.00 0.00 0.00 93 1016.8
20260506081839 15 211 0.0 0.0 0.00 0.00 0.00 92 1016.8
20260506081338 15 210 0.0 0.0 0.00 0.00 0.00 92 1016.9
20260506080835 15 211 0.0 0.0 0.00 0.00 0.00 92 1016.8
20260506080331 16 209 0.0 0.0 0.00 0.00 0.00 91 1016.9
20260506073315 16 221 0.0 0.0 0.00 0.00 0.00 89 1016.3
20260506072812 16 190 0.0 0.0 0.00 0.00 0.00 89 1016.3
20260506072310 16 209 0.0 0.0 0.00 0.00 0.00 89 1016.1
20260506071807 16 208 0.0 0.0 0.00 0.00 0.00 89 1016.4
20260506071305 16 199 0.0 0.0 0.00 0.00 0.00 88 1016.3
20260506070802 16 191 0.0 0.0 0.00 0.00 0.00 88 1016.5
20260506070259 16 233 0.0 0.0 0.00 0.00 0.00 87 1016.5
20260506062236 17 121 3.2 3.2 0.00 0.00 0.00 83 1016.1
20260506061732 17 258 0.0 0.0 0.00 0.00 0.00 82 1016.2
20260506061229 17 237 0.0 0.0 0.00 0.00 0.00 83 1016.0
20260506060728 17 224 0.0 0.0 0.00 0.00 0.00 83 1016.1
20260506060224 16 247 0.0 0.0 0.00 0.00 0.00 84 1016.1
20260506051156 16 235 0.0 0.0 0.00 0.00 0.00 80 1016.7
20260506050655 16 235 0.0 0.0 0.00 0.00 0.00 80 1016.6
20260506050152 17 200 0.0 0.0 0.00 0.00 0.00 79 1016.4
20260506044643 16 266 0.0 0.0 0.00 0.00 0.00 82 1016.5
20260506044139 16 200 1.6 1.6 0.00 0.00 0.00 83 1016.4
20260506043636 16 206 0.0 0.0 0.00 0.00 0.00 85 1016.6
20260506043134 16 207 0.0 0.0 0.00 0.00 0.00 85 1016.7
20260506042633 16 167 0.0 0.0 0.00 0.00 0.00 85 1016.7
20260506042131 16 215 0.0 0.0 0.00 0.00 0.00 85 1016.9
20260506041629 16 215 0.0 0.0 0.00 0.00 0.00 85 1016.8
20260506041125 16 215 0.0 0.0 0.00 0.00 0.00 84 1017.0
20260506040120 16 230 0.0 0.0 0.00 0.00 0.00 83 1017.0
20260506035617 16 230 0.0 0.0 0.00 0.00 0.00 81 1016.5
20260506035113 16 228 0.0 0.0 0.00 0.00 0.00 80 1016.5
20260506034611 16 203 0.0 0.0 0.00 0.00 0.00 79 1016.4
20260506034108 16 203 0.0 0.0 0.00 0.00 0.00 79 1016.4
20260506033605 17 161 0.0 0.0 0.00 0.00 0.00 79 1016.5
20260506033102 16 199 0.0 0.0 0.00 0.00 0.00 80 1016.3
20260506032559 16 211 0.0 0.0 0.00 0.00 0.00 79 1016.7
20260506032056 17 203 0.0 0.0 0.00 0.00 0.00 77 1016.5
20260506031553 17 202 0.0 0.0 0.00 0.00 0.00 77 1016.5
20260506031050 17 175 0.0 0.0 0.00 0.00 0.00 76 1016.6
20260506030548 17 168 0.0 0.0 0.00 0.00 0.00 75 1016.8
20260506030045 17 190 0.0 0.0 0.00 0.00 0.00 74 1016.8
20260506025542 17 171 0.0 0.0 0.00 0.00 0.00 74 1016.9
20260506025038 17 211 0.0 0.0 0.00 0.00 0.00 74 1017.2
20260506024535 17 211 0.0 0.0 0.00 0.00 0.00 74 1016.9
20260506024032 18 211 0.0 0.0 0.00 0.00 0.00 72 1016.9
20260506023528 18 207 0.0 0.0 0.00 0.00 0.00 71 1016.7
20260506023026 18 222 0.0 0.0 0.00 0.00 0.00 70 1016.7
20260506022523 18 222 0.0 0.0 0.00 0.00 0.00 70 1016.8
20260506022020 18 218 0.0 0.0 0.00 0.00 0.00 69 1016.7
20260506021518 19 198 0.0 0.0 0.00 0.00 0.00 68 1016.6
20260506021015 19 187 0.0 0.0 0.00 0.00 0.00 67 1016.4
20260506020512 19 183 0.0 0.0 0.00 0.00 0.00 68 1016.4
20260506020010 19 198 0.0 0.0 0.00 0.00 0.00 68 1016.3
20260506015507 20 201 0.0 0.0 0.00 0.00 0.00 66 1016.7
20260506015003 20 198 0.0 0.0 0.00 0.00 0.00 66 1016.6
20260506014501 20 207 0.0 0.0 0.00 0.00 0.00 64 1016.5
20260506013957 20 198 0.0 0.0 0.00 0.00 0.00 62 1016.4
20260506013455 20 198 0.0 0.0 0.00 0.00 0.00 61 1016.5
20260506012951 21 193 0.0 0.0 0.00 0.00 0.00 60 1016.6
20260506012447 21 189 0.0 0.0 0.00 0.00 0.00 57 1016.3
20260506011944 21 185 0.0 0.0 0.00 0.00 0.00 56 1016.5
20260506011442 21 184 0.0 0.0 0.00 0.00 0.00 55 1016.7
20260506010938 22 219 0.0 0.0 0.00 0.00 0.00 54 1016.7
20260506010438 22 236 0.0 0.0 0.00 0.00 0.00 53 1016.5
20260506005933 22 212 0.0 0.0 0.00 0.00 0.00 52 1016.6
20260506005431 23 221 0.0 1.6 0.00 0.00 0.00 50 1016.6
20260506004926 23 234 3.2 3.2 0.00 0.00 0.00 49 1016.5
20260506004425 23 260 1.6 1.6 0.00 0.00 0.00 49 1016.6
20260506003920 23 197 1.6 3.2 0.00 0.00 0.00 48 1016.2
20260506003417 23 266 1.6 3.2 0.00 0.00 0.00 48 1016.2
20260506002913 23 179 0.0 0.0 0.00 0.00 0.00 47 1016.3
20260506002409 24 240 1.6 3.2 0.00 0.00 0.00 46 1016.2
20260506001905 24 236 3.2 4.8 0.00 0.00 0.00 45 1016.1
20260506001402 25 228 1.6 3.2 0.00 0.00 0.00 45 1016.1
20260506000859 25 241 1.6 1.6 0.00 0.00 0.00 44 1015.9
20260506000357 25 238 3.2 3.2 0.00 0.00 0.00 43 1015.9
20260505235853 25 237 3.2 3.2 0.00 0.00 0.00 42 1016.1
20260505235351 25 248 4.8 9.7 0.00 0.00 0.00 41 1015.9
20260505234848 25 240 1.6 1.6 0.00 0.00 0.00 41 1015.6
20260505234346 25 260 0.0 0.0 0.00 0.00 0.00 41 1015.9
20260505233842 26 245 0.0 0.0 0.00 0.00 0.00 39 1015.8
20260505233340 26 220 3.2 4.8 0.00 0.00 0.00 39 1015.8
20260505232837 26 259 4.8 6.4 0.00 0.00 0.00 39 1015.7
20260505232335 26 258 0.0 1.6 0.00 0.00 0.00 39 1015.8
20260505231831 26 135 1.6 3.2 0.00 0.00 0.00 39 1015.6
20260505231329 27 261 8.0 12.9 0.00 0.00 0.00 38 1015.5
20260505230827 27 253 3.2 4.8 0.00 0.00 0.00 39 1015.4
20260505230324 27 237 1.6 3.2 0.00 0.00 0.00 40 1015.4
20260505225821 27 259 1.6 3.2 0.00 0.00 0.00 40 1015.4
20260505225318 27 337 3.2 4.8 0.00 0.00 0.00 40 1015.5
20260505224813 27 227 1.6 3.2 0.00 0.00 0.00 39 1015.6
20260505224311 27 118 6.4 9.7 0.00 0.00 0.00 38 1015.5
20260505223808 27 242 1.6 1.6 0.00 0.00 0.00 38 1015.6
20260505223305 27 143 1.6 1.6 0.00 0.00 0.00 38 1015.3
20260505222801 27 165 1.6 3.2 0.00 0.00 0.00 38 1015.5
20260505222257 28 219 3.2 4.8 0.00 0.00 0.00 39 1015.5
20260505221754 27 107 4.8 4.8 0.00 0.00 0.00 41 1015.6
20260505221251 27 320 1.6 1.6 0.00 0.00 0.00 41 1015.7
20260505220748 27 172 6.4 9.7 0.00 0.00 0.00 42 1015.7
20260505220245 27 106 4.8 6.4 0.00 0.00 0.00 41 1015.8
20260505215743 28 183 1.6 3.2 0.00 0.00 0.00 41 1015.9
20260505215241 28 264 3.2 3.2 0.00 0.00 0.00 41 1015.7
20260505214738 28 172 3.2 6.4 0.00 0.00 0.00 42 1015.8
20260505214235 28 142 3.2 4.8 0.00 0.00 0.00 40 1015.8
20260505213733 27 152 4.8 6.4 0.00 0.00 0.00 41 1016.0
20260505213230 28 148 6.4 9.7 0.00 0.00 0.00 40 1015.9
20260505212726 28 157 4.8 4.8 0.00 0.00 0.00 42 1015.7
20260505212223 28 186 4.8 6.4 0.00 0.00 0.00 43 1015.9
20260505211720 27 157 6.4 12.9 0.00 0.00 0.00 42 1015.9
20260505211218 27 175 9.7 12.9 0.00 0.00 0.00 39 1016.0
20260505210714 28 164 1.6 3.2 0.00 0.00 0.00 40 1015.8
20260505210211 28 109 3.2 4.8 0.00 0.00 0.00 41 1016.0
20260505205708 28 300 4.8 4.8 0.00 0.00 0.00 40 1015.8
20260505205206 28 171 3.2 4.8 0.00 0.00 0.00 41 1015.8
20260505204702 28 337 1.6 1.6 0.00 0.00 0.00 42 1016.0
20260505204200 28 44 3.2 4.8 0.00 0.00 0.00 42 1016.1
20260505203657 28 109 3.2 3.2 0.00 0.00 0.00 41 1016.0
20260505203154 28 223 6.4 9.7 0.00 0.00 0.00 42 1016.1
20260505202649 27 194 3.2 6.4 0.00 0.00 0.00 42 1016.1
20260505202146 28 230 6.4 6.4 0.00 0.00 0.00 45 1016.4
20260505201643 27 253 6.4 11.3 0.00 0.00 0.00 43 1016.3
20260505201141 27 110 3.2 3.2 0.00 0.00 0.00 44 1016.6
20260505200638 27 128 11.3 16.1 0.00 0.00 0.00 43 1016.4
20260505200135 28 156 4.8 6.4 0.00 0.00 0.00 43 1016.5
20260505195632 27 110 9.7 12.9 0.00 0.00 0.00 44 1016.6
20260505195129 28 81 6.4 6.4 0.00 0.00 0.00 42 1016.6
20260505194626 27 165 3.2 4.8 0.00 0.00 0.00 45 1016.6
20260505194121 27 152 6.4 6.4 0.00 0.00 0.00 44 1016.7
20260505193619 27 201 8.0 11.3 0.00 0.00 0.00 44 1016.8
20260505193116 27 154 4.8 4.8 0.00 0.00 0.00 45 1016.8
20260505192614 27 204 9.7 12.9 0.00 0.00 0.00 43 1016.6
20260505192111 27 139 8.0 9.7 0.00 0.00 0.00 46 1016.9
20260505191610 27 174 0.0 1.6 0.00 0.00 0.00 47 1016.9
20260505191107 27 170 3.2 3.2 0.00 0.00 0.00 46 1017.1
20260505190602 28 169 4.8 6.4 0.00 0.00 0.00 44 1017.3
20260505190058 27 258 3.2 3.2 0.00 0.00 0.00 46 1017.2
20260505185555 28 193 6.4 6.4 0.00 0.00 0.00 45 1017.3
20260505185051 27 263 4.8 6.4 0.00 0.00 0.00 43 1017.4
20260505184548 27 159 8.0 9.7 0.00 0.00 0.00 44 1017.8
20260505184045 27 124 1.6 3.2 0.00 0.00 0.00 48 1017.9
20260505183541 26 65 3.2 3.2 0.00 0.00 0.00 48 1018.0
20260505183039 27 131 9.7 12.9 0.00 0.00 0.00 48 1017.8
20260505182535 26 160 6.4 6.4 0.00 0.00 0.00 46 1018.0
20260505182032 26 201 3.2 3.2 0.00 0.00 0.00 48 1018.0
20260505181528 27 114 8.0 11.3 0.00 0.00 0.00 43 1018.0
20260505181026 26 310 3.2 4.8 0.00 0.00 0.00 44 1017.9
20260505180521 27 132 6.4 6.4 0.00 0.00 0.00 45 1018.2
20260505180020 26 161 3.2 3.2 0.00 0.00 0.00 46 1018.0
20260505175514 27 180 3.2 4.8 0.00 0.00 0.00 47 1018.0
20260505175012 27 228 6.4 9.7 0.00 0.00 0.00 44 1018.1
20260505174509 27 242 8.0 11.3 0.00 0.00 0.00 44 1018.1
20260505174004 27 171 4.8 9.7 0.00 0.00 0.00 45 1018.3
20260505173501 27 93 8.0 11.3 0.00 0.00 0.00 46 1018.1
20260505172958 26 220 4.8 9.7 0.00 0.00 0.00 46 1018.4
20260505172457 26 168 1.6 3.2 0.00 0.00 0.00 47 1018.4
20260505171956 26 121 4.8 4.8 0.00 0.00 0.00 49 1018.4
20260505171453 26 115 6.4 6.4 0.00 0.00 0.00 47 1018.3
20260505170949 26 130 6.4 9.7 0.00 0.00 0.00 46 1018.6
20260505170446 26 63 4.8 11.3 0.00 0.00 0.00 46 1018.6
20260505165942 26 243 3.2 4.8 0.00 0.00 0.00 48 1018.5
20260505165438 26 135 11.3 12.9 0.00 0.00 0.00 47 1018.7
20260505164933 25 97 6.4 11.3 0.00 0.00 0.00 52 1018.4
20260505164430 26 134 8.0 9.7 0.00 0.00 0.00 50 1018.5
20260505163928 25 140 3.2 6.4 0.00 0.00 0.00 52 1018.6
20260505163427 25 270 1.6 1.6 0.00 0.00 0.00 54 1018.7
20260505162926 25 122 6.4 9.7 0.00 0.00 0.00 52 1018.7
20260505162421 25 103 9.7 11.3 0.00 0.00 0.00 50 1018.7
20260505161918 25 203 0.0 0.0 0.00 0.00 0.00 51 1018.7
20260505161415 25 228 1.6 3.2 0.00 0.00 0.00 52 1018.8
20260505160912 25 249 4.8 9.7 0.00 0.00 0.00 52 1018.9
20260505160410 25 176 4.8 6.4 0.00 0.00 0.00 54 1018.9
20260505153349 23 330 6.4 9.7 0.00 0.00 0.00 58 1018.9
20260505152846 24 164 1.6 3.2 0.00 0.00 0.00 61 1019.2
20260505152344 23 215 1.6 1.6 0.00 0.00 0.00 60 1019.1
20260505151843 23 283 1.6 1.6 0.00 0.00 0.00 63 1019.1
20260505151340 22 183 6.4 9.7 0.00 0.00 0.00 63 1018.8
20260505150837 22 111 4.8 4.8 0.00 0.00 0.00 64 1018.9
20260505150334 22 194 8.0 9.7 0.00 0.00 0.00 64 1018.9
20260505140252 21 152 4.8 4.8 0.00 0.00 0.00 75 1018.8